Tracking 29892 objects as of 21-Nov-2024
HD Live streaming from Space Station
objects crossing your sky now

DMSAT-1

Track DMSAT-1 now!
10-day predictions


NORAD ID: 47940
Int'l Code: 2021-022J
Perigee: 421.2 km
Apogee: 425.8 km
Inclination: 97.4 °
Period: 92.9 minutes
Semi major axis: 6794 km
RCS: Unknown
Launch date: March 22, 2021
Source: United Arab Emirates (UAE)
Launch site: TYURATAM MISSILE AND SPACE COMPLEX (TTMTR)
Your satellite tracking list
Your tracking list is empty




NASA's NSSDC Master Catalog

Two Line Element Set (TLE):
1 47940U 21022J   24326.16918787  .00087928  00000-0  15485-2 0  9994
2 47940  97.4454 229.9898 0003359 288.0227  72.0658 15.50125063202915
Source of the keplerian elements: AFSPC